Regional Weather Roundup
Issued by NWS

Home | Current Version | Previous Version | Text Only | Print | Product List | Glossary On
Versions: 1 2 3 4 5 6 7 8 9 10 11 12 13 14 15 16 17 18 19 20 21 22 23 24 25 26 27 28 29 30 31 32 33 34 35 36 37 38 39 40 41 42 43 44 45 46 47 48 49 50
816
ASUS44 KLIX 240610
RWRLA
LOUISIANA WEATHER ROUNDUP
NATIONAL WEATHER SERVICE NEW ORLEANS LA
1200 AM CST MON NOV 24 2014

NOTE: "FAIR" INDICATES FEW OR NO CLOUDS BELOW 12,000 FEET WITH NO
      SIGNIFICANT WEATHER AND/OR OBSTRUCTIONS TO VISIBILITY.
      SKY/WX - SKY CONDITION AND SIGNIFICANT WEATHER.
      TMP - AIR TEMPERATURE.    DP   - DEWPOINT TEMPERATURE.
      RH  - RELATIVE HUMIDITY.  PRES - PRESSURE.
      HX  - HEAT INDEX.         WCI  - WIND CHILL INDEX.

*  THESE STATIONS ARE NOT NWS OR FAA STATIONS AND ARE NOT UNDER
   NWS QUALITY CONTROL.

LAZ040-048-061>063-065-066-069-240700-
SOUTHEAST LOUISIANA

CITY           SKY/WX    TMP DP  RH WIND       PRES   REMARKS
N.O. AUDUBON     N/A     67  67 100 MISG        N/A
6HR MIN TEMP:  66; 6HR MAX TEMP:  68;

N.O. INTL ARPT FOG       65  63  93 S10       29.74S VSB 1/2
6HR MIN TEMP:  64; 6HR MAX TEMP:  70;

N.O. LAKEFRONT CLEAR     68  65  90 S10       29.75S
6HR MIN TEMP:  68; 6HR MAX TEMP:  70;

N.O. DOWNTOWN* FAIR      68  63  83 S8        29.75F
6HR MIN TEMP:  68; 6HR MAX TEMP:  70;

SLIDELL        PTCLDY    68  65  90 S7        29.74S
6HR MIN TEMP:  62; 6HR MAX TEMP:  69;

BATON ROUGE    PTCLDY    67  64  90 SW12      29.72R
6HR MIN TEMP:  67; 6HR MAX TEMP:  70;

BOOTHVILLE     PTCLDY    67  67 100 S8        29.77S
6HR MIN TEMP:  66; 6HR MAX TEMP:  68;

BELLE CHASSE   PTCLDY    67  64  90 SW8       29.74F
6HR MIN TEMP:  66; 6HR MAX TEMP:  69;

BOGALUSA*        N/A     70  65  83 SW13      29.74S
6HR MIN TEMP:  64; 6HR MAX TEMP:  70;

NEW ROADS*     FAIR      65  64  96 S7        29.71S FOG
6HR MIN TEMP:  65; 6HR MAX TEMP:  68;

GONZALES*      FAIR      64  64 100 S6        29.73R FOG
6HR MIN TEMP:  63; 6HR MAX TEMP:  69;

HAMMOND*       MOCLDY    66  64  94 S5        29.74S
HOUMA*         CLEAR     67  66  97 S3        29.75S FOG
6HR MIN TEMP:  66; 6HR MAX TEMP:  69; 6HR PCP:  0.01;

PORT FOURCHON* MOCLDY    70  70 100 S6        29.79F FOG

$$

LAZ041-044-053-054-240700-
SOUTHWEST LOUISIANA

CITY           SKY/WX    TMP DP  RH WIND       PRES   REMARKS
LAKE CHARLES   CLEAR     63  61  93 SW6       29.70S
6HR MIN TEMP:  63; 6HR MAX TEMP:  67;

LAFAYETTE      CLOUDY    68  66  93 SW10      29.72S
6HR MIN TEMP:  67; 6HR MAX TEMP:  70;

PATTERSON      CLEAR     66  64  94 SW7       29.75S
6HR MIN TEMP:  66; 6HR MAX TEMP:  68;

SALT POINT       N/A     70  65  84 VRB3      29.73R
NEW IBERIA     CLOUDY    67  66  97 SW6       29.73S FOG
6HR MIN TEMP:  66; 6HR MAX TEMP:  68;

CHENAULT AIRPK CLEAR     63  62  97 S5        29.71S
6HR MIN TEMP:  63; 6HR MAX TEMP:  66;


$$

LAZ027-028-240700-
CENTRAL LOUISIANA

CITY           SKY/WX    TMP DP  RH WIND       PRES   REMARKS
FORT POLK      CLEAR     61  56  82 SW8       29.69R
6HR MIN TEMP:  61; 6HR MAX TEMP:  65;

ALEXANDRIA INT CLEAR     62  57  83 SW10      29.66R
6HR MIN TEMP:  62; 6HR MAX TEMP:  66;

ALEXANDRIA     CLEAR     62  57  83 SW7       29.66S
6HR MIN TEMP:  61; 6HR MAX TEMP:  66;


$$

LAZ001-002-240700-
NORTHWEST LOUISIANA

CITY           SKY/WX    TMP DP  RH WIND       PRES   REMARKS
SHREVEPORT     CLEAR     59  46  62 W17G24    29.67R
6HR MIN TEMP:  59; 6HR MAX TEMP:  67;

BARKSDALE AFB  CLEAR     60  46  60 W15G28    29.67R
6HR MIN TEMP:  60; 6HR MAX TEMP:  66;

DTN SHREVEPORT CLEAR     58  45  62 W15G26    29.67R
6HR MIN TEMP:  58; 6HR MAX TEMP:  68;


$$

LAZ014-016-240700-
NORTHEAST LOUISIANA

CITY           SKY/WX    TMP DP  RH WIND       PRES   REMARKS
MONROE         CLEAR     60  57  89 SW10      29.63R
6HR MIN TEMP:  59; 6HR MAX TEMP:  66;

TALLULAH       CLEAR     64  58  80 SW6       29.63R
6HR MIN TEMP:  64; 6HR MAX TEMP:  67;


$$




USA.gov is the U.S. government's official web portal to all federal, state and local government web resources and services.